[[{"header":{"parameterUnit":"m.s-1","parameterCategory":2,"la1":30.2991,"la2":30.254,"lo1":-89.0895,"lo2":-89.0444,"dy":0.0017,"dx":0.0017,"nx":28,"ny":28,"refTime":"2025-11-05T03:00:00:Z","depth":"0","parameterNumber":2,"parameterNumberName":"U-component_of_CURRENTS"},"data":[0,0,0,0,0,0,0,0,0,0,0,0,0,0,0,0,0,0,0,0,0,0,0,0,0,0,0,0,0,0,0,0,0,0,0,0,0,0,0,0,0,0,0,0,0,0,0,0,0,0,0,0,0,0,0,0,0,0,-0.3018,-0.3019,0,-0.3048,-0.3048,-0.3048,-0.3008,-0.3007,-0.3006,-0.3005,-0.2963,-0.2963,-0.2963,0,0,0,0,0,0,0,0,0,0,0,0,0,-0.2927,-0.2929,-0.3018,-0.3019,-0.302,-0.3048,-0.3048,-0.3048,-0.3008,-0.3007,-0.3006,-0.3004,-0.2963,-0.2963,-0.2963,0,0,0,0,0,0,0,0,0,0,0,0,0,-0.296,-0.2929,-0.3018,-0.3005,-0.3005,-0.3048,-0.3048,-0.3049,-0.3009,-0.3007,-0.3005,-0.3004,-0.2963,-0.2963,-0.2963,-0.2998,0,0,-0.2963,-0.2963,0,0,0,0,0,0,0,0,-0.2958,-0.2963,-0.3007,-0.3006,-0.3006,-0.3025,-0.3001,-0.3029,-0.3009,-0.3004,-0.3005,-0.3003,-0.2981,-0.2979,-0.2985,-0.2996,-0.2994,-0.2963,-0.2963,-0.2963,-0.2963,0,0,0,0,0,0,0,-0.2956,-0.2961,-0.3027,-0.3007,-0.3007,-0.2999,-0.3001,-0.3006,-0.2998,-0.3004,-0.3002,-0.3011,-0.2979,-0.2985,-0.2984,-0.2993,-0.2963,-0.2963,-0.2963,-0.2963,-0.2999,-0.3,0,0,0,0,0,0,-0.2961,-0.296,-0.3026,-0.3028,-0.2981,-0.3002,-0.3004,-0.3018,-0.2999,-0.2996,-0.3013,-0.3009,-0.2986,-0.2984,-0.2982,-0.3003,-0.2963,-0.2963,-0.2963,-0.2998,-0.2999,-0.3,0,0,0,0,0,0,-0.2959,-0.2967,-0.3025,-0.2996,-0.3003,-0.3006,-0.3021,-0.302,-0.3018,-0.3007,-0.3001,-0.3011,-0.2985,-0.2982,-0.2985,-0.3002,-0.2963,-0.2963,-0.2997,-0.2998,-0.3,-0.3058,0,0,0,0,0,0,-0.2956,-0.2966,-0.2972,-0.2997,-0.3005,-0.3053,-0.3023,-0.3022,-0.3028,-0.3024,-0.3005,-0.3,-0.2983,-0.2986,-0.2985,-0.3001,-0.2963,-0.2996,-0.2998,-0.2999,-0.3055,-0.3061,-0.3066,0,0,0,0,0,-0.2953,-0.2972,-0.2972,-0.298,-0.3016,-0.3055,-0.3058,-0.3051,-0.303,-0.304,-0.3023,-0.3,-0.2997,-0.2987,-0.2986,-0.3002,-0.2995,-0.2997,-0.2999,-0.3052,-0.306,-0.3066,0,0,0,0,0,0,-0.2932,-0.2971,-0.2971,-0.2999,-0.3026,-0.3049,-0.3056,-0.3055,-0.3052,-0.304,-0.3017,-0.3013,-0.3021,-0.3007,-0.2997,-0.3018,-0.299,-0.2993,-0.3031,-0.3038,-0.3044,-0.3049,-0.2963,0,0,0,0,0,-0.2934,-0.2954,-0.2993,-0.3011,-0.3028,-0.3042,-0.3053,-0.3056,-0.3062,-0.3058,-0.3047,-0.3034,-0.3035,-0.3031,-0.3029,-0.3046,-0.3017,-0.3054,-0.306,-0.3065,-0.3069,-0.3046,-0.305,-0.3008,-0.3008,-0.3008,0,0,-0.2925,-0.2952,-0.296,-0.3007,-0.3022,-0.306,-0.3043,-0.3069,-0.3092,-0.3056,-0.3069,-0.3057,-0.3044,-0.3059,-0.3061,-0.3047,-0.3061,-0.3068,-0.3072,-0.3073,-0.3049,-0.3053,-0.3056,-0.3009,-0.3009,-0.3009,0,0,-0.2932,-0.295,-0.2973,-0.3006,-0.3045,-0.3066,-0.3076,-0.3106,-0.3107,-0.3131,-0.3107,-0.3105,-0.3107,-0.3102,-0.3099,-0.314,-0.3094,-0.3136,-0.317,-0.3149,-0.3152,-0.3154,-0.3116,-0.3115,-0.3138,-0.3138,-0.3138,0,-0.2917,-0.2957,-0.2985,-0.3026,-0.3048,-0.3071,-0.3104,-0.3128,-0.3152,-0.3154,-0.3138,-0.3138,-0.3129,-0.3144,-0.3159,-0.3153,-0.3125,-0.3144,-0.3156,-0.3157,-0.3159,-0.3119,-0.3117,-0.3141,-0.3141,-0.314,-0.314,0,-0.2948,-0.2982,-0.3001,-0.3058,-0.3091,-0.3123,-0.3169,-0.3191,-0.3193,-0.3206,-0.3215,-0.3206,-0.3199,-0.3203,-0.3196,-0.3208,-0.3179,-0.3166,-0.3136,-0.3166,-0.3123,-0.3119,-0.3145,-0.3144,-0.3143,-0.3143,0,0,-0.2897,-0.3,-0.3003,-0.3033,-0.3107,-0.3135,-0.3188,-0.3231,-0.3248,-0.3265,-0.3272,-0.3286,-0.3269,-0.3265,-0.3252,-0.3244,-0.3234,-0.3215,-0.3213,-0.3175,-0.3171,-0.3077,-0.3064,-0.322,-0.322,-0.322,-0.3133,0,-0.2902,-0.2977,-0.303,-0.3088,-0.3125,-0.3175,-0.322,-0.3262,-0.3283,-0.3302,-0.3299,-0.3302,-0.3297,-0.3286,-0.3283,-0.325,-0.3228,-0.3257,-0.3149,-0.3145,-0.3057,-0.3058,-0.2941,-0.2848,-0.3129,-0.3129,-0.3128,0,-0.2901,-0.2954,-0.3014,-0.3099,-0.3118,-0.3157,-0.3212,-0.3259,-0.3306,-0.3319,-0.333,-0.3325,-0.3331,-0.331,-0.3269,-0.3286,-0.3233,-0.3202,-0.3197,-0.3087,-0.3046,-0.2865,-0.2831,-0.2812,-0.3122,-0.3123,-0.3123,0,-0.2831,-0.2934,-0.2974,-0.3005,-0.3112,-0.3135,-0.3183,-0.3246,-0.3276,-0.332,-0.3329,-0.3339,-0.3327,-0.3289,-0.3238,-0.3249,-0.317,-0.317,-0.3032,-0.3024,-0.2891,-0.2871,-0.2821,-0.312,-0.312,-0.312,-0.312,0,-0.2804,-0.2832,-0.2943,-0.2964,-0.3,-0.3091,-0.3126,-0.3178,-0.3244,-0.3263,-0.332,-0.3316,-0.3321,-0.3282,-0.3233,-0.3116,-0.3159,-0.303,-0.2995,-0.2906,-0.289,-0.284,-0.2867,-0.3117,-0.3118,-0.3118,-0.3119,0,-0.2708,-0.279,-0.2834,-0.2939,-0.2966,-0.2984,-0.3082,-0.3108,-0.3191,-0.3215,-0.3225,-0.3288,-0.324,-0.3217,-0.3146,-0.3088,-0.2937,-0.2937,-0.2827,-0.278,-0.2632,-0.2667,-0.2568,-0.2497,-0.2772,-0.2769,-0.2767,0,-0.2663,-0.2679,-0.2779,-0.2795,-0.2836,-0.289,-0.2924,-0.3045,-0.308,-0.3176,-0.317,-0.317,-0.3114,-0.2998,-0.2911,-0.2789,-0.2801,-0.2619,-0.2622,-0.2599,-0.2613,-0.2644,-0.2595,-0.2467,-0.2462,-0.2459,-0.2455,0,-0.2556,-0.2591,-0.2626,-0.2665,-0.27,-0.2747,-0.2811,-0.2836,-0.2966,-0.2996,-0.3,-0.2965,-0.2888,-0.2727,-0.261,-0.2531,-0.256,-0.2535,-0.254,-0.239,-0.2391,-0.2313,-0.2554,-0.2422,-0.2425,-0.2427,-0.2429,-0.2431,-0.2447,-0.2441,-0.2486,-0.2503,-0.2544,-0.256,-0.2542,-0.2626,-0.2648,-0.2653,-0.275,-0.2662,-0.2597,-0.2411,-0.2335,-0.2202,-0.228,-0.2146,-0.2194,-0.2231,-0.2151,-0.2309,-0.2124,-0.2126,-0.2127,-0.2128,-0.213,0,-0.2297,-0.2307,-0.2321,-0.2338,-0.2311,-0.239,-0.2425,-0.2376,-0.2333,-0.2386,-0.2358,-0.23,-0.2145,-0.2112,-0.1997,-0.1902,-0.1874,-0.1875,-0.1909,-0.1877,-0.2022,-0.1996,-0.1739,-0.1739,-0.1739,-0.1739,-0.1739,-0.1739,-0.222,-0.2173,-0.2183,-0.2086,-0.2092,-0.1999,-0.1974,-0.1928,-0.1928,-0.1851,-0.1852,-0.1897,-0.1901,-0.2017,-0.1884,-0.1792,-0.1768,-0.1703,-0.1748,-0.1885,-0.1916,-0.1945,-0.1926,-0.1659,-0.1659,-0.1529,-0.1529,-0.1528]},{"header":{"parameterUnit":"m.s-1","parameterCategory":2,"la1":30.2991,"la2":30.254,"lo1":-89.0895,"lo2":-89.0444,"dy":0.0017,"dx":0.0017,"nx":28,"ny":28,"refTime":"2025-11-05T03:00:00:Z","depth":"0","parameterNumber":3,"parameterNumberName":"V-component_of_CURRENTS"},"data":[0,0,0,0,0,0,0,0,0,0,0,0,0,0,0,0,0,0,0,0,0,0,0,0,0,0,0,0,0,0,0,0,0,0,0,0,0,0,0,0,0,0,0,0,0,0,0,0,0,0,0,0,0,0,0,0,0,0,-0.0208,-0.0208,0,-0.0113,-0.0112,-0.011,-0.0039,-0.0039,-0.0039,-0.0038,0.0113,0.0116,0.012,0,0,0,0,0,0,0,0,0,0,0,0,0,-0.0266,-0.0266,-0.0209,-0.0208,-0.0207,-0.0113,-0.0112,-0.011,-0.004,-0.0039,-0.0039,-0.0038,0.0111,0.0116,0.012,0,0,0,0,0,0,0,0,0,0,0,0,0,-0.0211,-0.0265,-0.0209,-0.0162,-0.0157,-0.0114,-0.0112,-0.011,-0.004,-0.0039,-0.0038,-0.0038,0.011,0.0115,0.0121,0.0142,0,0,0.0137,0.014,0,0,0,0,0,0,0,0,-0.0214,-0.0209,-0.017,-0.0165,-0.0159,-0.009,-0.0077,-0.0024,-0.004,-0.0082,-0.0038,-0.0038,0.0048,0.0059,0.0078,0.0149,0.0156,0.0138,0.0141,0.0143,0.0145,0,0,0,0,0,0,0,-0.0218,-0.0212,-0.0168,-0.0169,-0.0162,-0.0124,-0.0116,-0.0066,-0.0019,-0.0078,-0.0073,-0.0066,0.0052,0.0072,0.0082,0.0158,0.0138,0.0142,0.0146,0.0148,0.0275,0.0275,0,0,0,0,0,0,-0.0239,-0.0216,-0.0171,-0.0166,-0.0188,-0.0124,-0.0114,-0.0111,-0.002,-0.0007,-0.0067,-0.0064,0.0063,0.0076,0.0088,0.0121,0.0143,0.0149,0.0152,0.0274,0.0275,0.0275,0,0,0,0,0,0,-0.024,-0.0236,-0.0175,-0.019,-0.018,-0.0124,-0.012,-0.0109,-0.0089,-0.0013,0.0002,-0.0059,0.0064,0.008,0.013,0.0127,0.0151,0.0156,0.0274,0.0275,0.0275,0.0186,0,0,0,0,0,0,-0.0243,-0.0237,-0.0243,-0.0192,-0.018,-0.0161,-0.012,-0.0108,-0.0087,-0.0081,-0.0001,0.0014,0.0065,0.0121,0.0135,0.0135,0.016,0.0274,0.0274,0.0275,0.0189,0.0184,0.0179,0,0,0,0,0,-0.0245,-0.0262,-0.0244,-0.0239,-0.019,-0.0162,-0.0152,-0.0108,-0.0088,-0.0086,-0.0028,0.0011,0.0132,0.0125,0.0142,0.0144,0.0274,0.0274,0.0275,0.0192,0.0185,0.0179,0,0,0,0,0,0,-0.029,-0.0255,-0.0234,-0.0239,-0.0207,-0.0151,-0.0148,-0.0116,-0.0069,-0.0063,0.0012,0.0031,0.0073,0.0121,0.0111,0.0182,0.021,0.0213,0.0141,0.0136,0.013,0.0111,0.0165,0,0,0,0,0,-0.0305,-0.0307,-0.0263,-0.0267,-0.0255,-0.0202,-0.0186,-0.0157,-0.0109,-0.0088,-0.0031,0.0033,0.0087,0.0119,0.0172,0.0209,0.0264,0.0223,0.0217,0.0212,0.0209,0.0288,0.029,0.0275,0.0275,0.0275,0,0,-0.0323,-0.0304,-0.0305,-0.0276,-0.0247,-0.0241,-0.019,-0.0175,-0.0162,-0.0079,-0.0045,0.0013,0.0092,0.0134,0.0158,0.0174,0.0245,0.0213,0.0208,0.0207,0.0289,0.029,0.0291,0.0276,0.0276,0.0275,0,0,-0.0369,-0.0345,-0.0365,-0.0344,-0.0313,-0.0276,-0.0277,-0.0225,-0.0194,-0.0157,-0.0092,-0.0035,0.0043,0.0103,0.0143,0.0142,0.0211,0.0157,0.012,0.0196,0.0198,0.02,0.0266,0.0274,0.0158,0.0158,0.0158,0,-0.0394,-0.0408,-0.0366,-0.0378,-0.0367,-0.0299,-0.0313,-0.0272,-0.0209,-0.0179,-0.016,-0.0031,0.003,0.0099,0.0096,0.013,0.018,0.0133,0.0188,0.0192,0.0196,0.0262,0.0273,0.0153,0.0154,0.0154,0.0155,0,-0.0453,-0.0461,-0.0471,-0.0461,-0.0442,-0.0443,-0.0385,-0.0356,-0.0309,-0.0257,-0.0186,-0.0098,-0.0019,0.0009,0.0051,0.011,0.0138,0.0167,0.0199,0.0191,0.0263,0.0275,0.0147,0.0149,0.015,0.0151,0,0,-0.0515,-0.0515,-0.0517,-0.0526,-0.0486,-0.0478,-0.0452,-0.0402,-0.0375,-0.0303,-0.0257,-0.0163,-0.0106,-0.0058,0.0012,0.0078,0.0143,0.0122,0.0128,0.0177,0.0306,0.0355,0.0375,0.0181,0.0183,0.0184,0.0343,0,-0.0573,-0.0624,-0.0596,-0.0624,-0.0641,-0.057,-0.055,-0.0492,-0.0422,-0.0358,-0.025,-0.0182,-0.0133,-0.0093,-0.0022,0.0108,0.0174,0.0097,0.0316,0.0322,0.0359,0.039,0.0431,0.0579,0.0356,0.0358,0.036,0,-0.0637,-0.0662,-0.0712,-0.0705,-0.0703,-0.0702,-0.0644,-0.0616,-0.0502,-0.0446,-0.0354,-0.026,-0.0147,-0.0108,0.0098,0.0046,0.0159,0.0258,0.0267,0.0353,0.0396,0.0554,0.0611,0.0769,0.038,0.0378,0.0377,0,-0.071,-0.0736,-0.0779,-0.078,-0.0762,-0.0758,-0.0734,-0.0644,-0.0609,-0.0493,-0.0446,-0.03,-0.0211,-0.006,0.0143,0.0122,0.0378,0.0382,0.0533,0.0538,0.0637,0.0648,0.0867,0.0522,0.0521,0.0521,0.052,0,-0.0783,-0.0813,-0.0819,-0.0846,-0.088,-0.0834,-0.0831,-0.0778,-0.0689,-0.0635,-0.0501,-0.0412,-0.0194,-0.0016,0.0141,0.0388,0.0384,0.0538,0.059,0.0607,0.0613,0.0806,0.0854,0.0527,0.0526,0.0524,0.0523,0,-0.0855,-0.086,-0.0912,-0.0918,-0.0921,-0.0944,-0.0912,-0.0897,-0.0804,-0.0726,-0.069,-0.0477,-0.0236,-0.0008,0.0274,0.0402,0.0731,0.0707,0.0708,0.0757,0.1013,0.1052,0.1314,0.1411,0.0887,0.0889,0.0891,0,-0.0896,-0.0935,-0.0979,-0.1013,-0.1021,-0.104,-0.1046,-0.097,-0.0938,-0.0751,-0.0714,-0.0461,-0.0256,0.017,0.0452,0.0754,0.0866,0.095,0.0915,0.105,0.1133,0.1154,0.1217,0.1015,0.1018,0.102,0.1022,0,-0.097,-0.0986,-0.1027,-0.1107,-0.1138,-0.1161,-0.1155,-0.1147,-0.1025,-0.0915,-0.0713,-0.0526,-0.0098,0.0285,0.067,0.0848,0.1065,0.1003,0.1163,0.1269,0.1292,0.1401,0.0874,0.1042,0.104,0.1039,0.1038,0.1037,-0.101,-0.1063,-0.1121,-0.1188,-0.1229,-0.1257,-0.126,-0.1206,-0.1121,-0.0915,-0.0729,-0.0396,0.0131,0.0693,0.0895,0.1312,0.1256,0.1424,0.1466,0.1481,0.1562,0.1067,0.1275,0.1275,0.1274,0.1274,0.1273,0,-0.1054,-0.1113,-0.1194,-0.1266,-0.1319,-0.1317,-0.1306,-0.1253,-0.1131,-0.0892,-0.0647,-0.0018,0.0496,0.0962,0.1535,0.1756,0.1798,0.1869,0.1919,0.1966,0.1564,0.1557,0.1813,0.1813,0.1812,0.1812,0.1812,0.1812,-0.1078,-0.1166,-0.1212,-0.1314,-0.1361,-0.138,-0.1362,-0.1238,-0.106,-0.0643,-0.0259,0.0055,0.0715,0.1606,0.2128,0.2181,0.236,0.235,0.2443,0.2164,0.2126,0.2089,0.2097,0.2461,0.2462,0.2838,0.2842,0.2845]}],[{"header":{"parameterUnit":"m.s-1","parameterCategory":2,"la1":30.2991,"la2":30.254,"lo1":-89.0895,"lo2":-89.0444,"dy":0.0017,"dx":0.0017,"nx":28,"ny":28,"refTime":"2025-11-05T03:00:00:Z","depth":"2","parameterNumber":2,"parameterNumberName":"U-component_of_CURRENTS"},"data":[0,0,0,0,0,0,0,0,0,0,0,0,0,0,0,0,0,0,0,0,0,0,0,0,0,0,0,0,0,0,0,0,0,0,0,0,0,0,0,0,0,0,0,0,0,0,0,0,0,0,0,0,0,0,0,0,0,0,-0.2689,-0.269,0,-0.2724,-0.2725,-0.2725,-0.27,-0.2699,-0.2699,-0.2698,-0.2675,-0.2675,-0.2676,0,0,0,0,0,0,0,0,0,0,0,0,0,-0.2601,-0.2603,-0.2689,-0.269,-0.269,-0.2724,-0.2725,-0.2725,-0.27,-0.2699,-0.2698,-0.2697,-0.2675,-0.2675,-0.2676,0,0,0,0,0,0,0,0,0,0,0,0,0,-0.2636,-0.2603,-0.2689,-0.2684,-0.2684,-0.2724,-0.2725,-0.2725,-0.2701,-0.2699,-0.2698,-0.2697,-0.2675,-0.2675,-0.2676,-0.2703,0,0,-0.2677,-0.2677,0,0,0,0,0,0,0,0,-0.2634,-0.2639,-0.2684,-0.2685,-0.2685,-0.2709,-0.2686,-0.2716,-0.2701,-0.2692,-0.2698,-0.2696,-0.2684,-0.2683,-0.269,-0.2702,-0.2701,-0.2677,-0.2677,-0.2677,-0.2677,0,0,0,0,0,0,0,-0.2631,-0.2637,-0.27,-0.2685,-0.2686,-0.2681,-0.2684,-0.2691,-0.2691,-0.2692,-0.2691,-0.27,-0.2683,-0.269,-0.2689,-0.2701,-0.2677,-0.2677,-0.2677,-0.2677,-0.2721,-0.2722,0,0,0,0,0,0,-0.2635,-0.2635,-0.2699,-0.2701,-0.2659,-0.2684,-0.2687,-0.27,-0.2692,-0.2691,-0.2701,-0.2699,-0.269,-0.2689,-0.2688,-0.2718,-0.2677,-0.2677,-0.2677,-0.272,-0.2721,-0.2723,0,0,0,0,0,0,-0.2633,-0.264,-0.2698,-0.2671,-0.2678,-0.2687,-0.2702,-0.2702,-0.2707,-0.27,-0.2697,-0.2706,-0.2689,-0.2688,-0.2698,-0.2717,-0.2677,-0.2677,-0.2719,-0.2721,-0.2722,-0.2779,0,0,0,0,0,0,-0.263,-0.2639,-0.2646,-0.2671,-0.268,-0.2727,-0.2703,-0.2703,-0.2716,-0.2713,-0.2704,-0.27,-0.2688,-0.2697,-0.2698,-0.2716,-0.2678,-0.2718,-0.272,-0.2721,-0.2776,-0.2782,-0.2787,0,0,0,0,0,-0.2627,-0.2645,-0.2646,-0.2654,-0.2691,-0.2728,-0.2732,-0.2732,-0.2717,-0.2729,-0.272,-0.2701,-0.2709,-0.2699,-0.2699,-0.2718,-0.2717,-0.2719,-0.2721,-0.2773,-0.2781,-0.2787,0,0,0,0,0,0,-0.2608,-0.2645,-0.2647,-0.2674,-0.2701,-0.2725,-0.2735,-0.2738,-0.2742,-0.2734,-0.2718,-0.2715,-0.273,-0.2719,-0.2708,-0.2736,-0.2709,-0.2711,-0.2748,-0.2755,-0.2761,-0.2764,-0.2678,0,0,0,0,0,-0.261,-0.263,-0.2667,-0.2686,-0.2702,-0.2719,-0.2732,-0.2739,-0.2749,-0.2749,-0.2745,-0.2739,-0.2743,-0.2743,-0.2744,-0.2765,-0.2739,-0.2775,-0.2781,-0.2786,-0.279,-0.2772,-0.2776,-0.273,-0.273,-0.273,0,0,-0.2605,-0.2629,-0.2638,-0.2683,-0.2699,-0.2735,-0.2723,-0.2751,-0.2776,-0.2747,-0.2769,-0.2762,-0.2753,-0.2772,-0.2778,-0.2764,-0.2785,-0.2789,-0.2794,-0.2794,-0.2775,-0.2779,-0.2783,-0.2731,-0.2731,-0.2731,0,0,-0.2612,-0.2631,-0.2653,-0.2684,-0.2724,-0.2744,-0.2755,-0.2788,-0.2795,-0.2823,-0.2805,-0.281,-0.2818,-0.2817,-0.2816,-0.2857,-0.2818,-0.2856,-0.289,-0.2873,-0.2877,-0.288,-0.2848,-0.2847,-0.2859,-0.2859,-0.2859,0,-0.2602,-0.2638,-0.2665,-0.2703,-0.2726,-0.2751,-0.2784,-0.2809,-0.2838,-0.2845,-0.2834,-0.2845,-0.284,-0.2858,-0.2874,-0.287,-0.2847,-0.2864,-0.2881,-0.2883,-0.2884,-0.2851,-0.2849,-0.2862,-0.2862,-0.2862,-0.2861,0,-0.2631,-0.2664,-0.2682,-0.2735,-0.2768,-0.28,-0.2845,-0.2872,-0.288,-0.2896,-0.2915,-0.2911,-0.2912,-0.2917,-0.2911,-0.2928,-0.2902,-0.289,-0.2861,-0.2892,-0.2855,-0.2853,-0.2867,-0.2865,-0.2865,-0.2864,0,0,-0.259,-0.2682,-0.2686,-0.2715,-0.2786,-0.2813,-0.2866,-0.2911,-0.2933,-0.2957,-0.2972,-0.299,-0.298,-0.2978,-0.297,-0.2965,-0.2961,-0.2939,-0.2937,-0.2905,-0.2911,-0.2822,-0.281,-0.295,-0.295,-0.295,-0.2877,0,-0.2597,-0.2664,-0.2713,-0.2769,-0.2804,-0.2854,-0.2899,-0.2944,-0.297,-0.2996,-0.2999,-0.3011,-0.3006,-0.3003,-0.3002,-0.2974,-0.2958,-0.2981,-0.2887,-0.2884,-0.2799,-0.2805,-0.2612,-0.2525,-0.2875,-0.2874,-0.2874,0,-0.2598,-0.2645,-0.2703,-0.2782,-0.2801,-0.2841,-0.2901,-0.2948,-0.3001,-0.3019,-0.3038,-0.3039,-0.305,-0.3031,-0.2998,-0.3012,-0.2967,-0.2939,-0.2935,-0.283,-0.279,-0.2551,-0.2507,-0.2869,-0.2869,-0.287,-0.287,0,-0.2536,-0.263,-0.267,-0.27,-0.2799,-0.2826,-0.2875,-0.2941,-0.2973,-0.3026,-0.3041,-0.3057,-0.3052,-0.3021,-0.2976,-0.2985,-0.292,-0.2917,-0.279,-0.2783,-0.2588,-0.2563,-0.2877,-0.2877,-0.2877,-0.2877,-0.2878,0,-0.2513,-0.2541,-0.2644,-0.2664,-0.2704,-0.279,-0.2831,-0.2885,-0.2953,-0.2976,-0.3038,-0.3039,-0.305,-0.3018,-0.2975,-0.2869,-0.2912,-0.279,-0.2758,-0.2602,-0.258,-0.2858,-0.2856,-0.2875,-0.2875,-0.2876,-0.2876,0,-0.2427,-0.2503,-0.2546,-0.2647,-0.2674,-0.2696,-0.2793,-0.282,-0.2908,-0.2937,-0.2951,-0.3016,-0.2976,-0.2961,-0.2901,-0.2847,-0.2767,-0.2713,-0.2525,-0.2472,-0.2642,-0.2645,-0.2567,-0.2563,-0.256,-0.2558,-0.2555,0,-0.2387,-0.2403,-0.2499,-0.2516,-0.2556,-0.2613,-0.2646,-0.2765,-0.2798,-0.29,-0.2894,-0.2905,-0.2854,-0.2755,-0.2671,-0.2562,-0.2655,-0.2333,-0.2318,-0.2634,-0.2611,-0.2619,-0.2626,-0.2078,-0.2072,-0.2067,-0.2063,0,-0.2291,-0.2326,-0.2359,-0.2397,-0.2432,-0.2476,-0.2538,-0.2559,-0.2686,-0.2716,-0.2722,-0.2693,-0.263,-0.2438,-0.2339,-0.2257,-0.2343,-0.223,-0.2588,-0.2197,-0.2169,-0.2149,-0.2172,-0.202,-0.2024,-0.2028,-0.203,-0.2032,-0.2194,-0.2188,-0.223,-0.2247,-0.2287,-0.2296,-0.2275,-0.235,-0.2365,-0.2365,-0.2464,-0.2356,-0.2342,-0.2073,-0.1961,-0.189,-0.2046,-0.1961,-0.1977,-0.1999,-0.1966,-0.1935,-0.1734,-0.1736,-0.1739,-0.1741,-0.1742,0,-0.2057,-0.2064,-0.2075,-0.2089,-0.206,-0.2139,-0.2161,-0.2104,-0.205,-0.2088,-0.2058,-0.1833,-0.1711,-0.1704,-0.1521,-0.1487,-0.1484,-0.1431,-0.1432,-0.1475,-0.1514,-0.1458,-0.1091,-0.1089,-0.1087,-0.1085,0,0,-0.1987,-0.1939,-0.1943,-0.1845,-0.1851,-0.1757,-0.1727,-0.1666,-0.1649,-0.1533,-0.1485,-0.1605,-0.1641,-0.1364,-0.1304,-0.1167,-0.1307,-0.1107,-0.1629,-0.1672,-0.1709,-0.1816,-0.1777,0,0,0,0,0]},{"header":{"parameterUnit":"m.s-1","parameterCategory":2,"la1":30.2991,"la2":30.254,"lo1":-89.0895,"lo2":-89.0444,"dy":0.0017,"dx":0.0017,"nx":28,"ny":28,"refTime":"2025-11-05T03:00:00:Z","depth":"2","parameterNumber":3,"parameterNumberName":"V-component_of_CURRENTS"},"data":[0,0,0,0,0,0,0,0,0,0,0,0,0,0,0,0,0,0,0,0,0,0,0,0,0,0,0,0,0,0,0,0,0,0,0,0,0,0,0,0,0,0,0,0,0,0,0,0,0,0,0,0,0,0,0,0,0,0,-0.0292,-0.0292,0,-0.0209,-0.0208,-0.0207,-0.0144,-0.0144,-0.0143,-0.0143,-0.001,-0.0007,-0.0004,0,0,0,0,0,0,0,0,0,0,0,0,0,-0.0339,-0.0338,-0.0292,-0.0291,-0.0291,-0.021,-0.0208,-0.0207,-0.0144,-0.0144,-0.0143,-0.0143,-0.0011,-0.0007,-0.0003,0,0,0,0,0,0,0,0,0,0,0,0,0,-0.0292,-0.0338,-0.0292,-0.0251,-0.0247,-0.021,-0.0208,-0.0207,-0.0144,-0.0144,-0.0143,-0.0143,-0.0012,-0.0007,-0.0003,0.0015,0,0,0.0012,0.0014,0,0,0,0,0,0,0,0,-0.0295,-0.029,-0.0258,-0.0254,-0.0249,-0.0188,-0.0176,-0.0131,-0.0144,-0.0181,-0.0143,-0.0142,-0.0067,-0.0057,-0.0041,0.0021,0.0027,0.0012,0.0015,0.0017,0.0019,0,0,0,0,0,0,0,-0.0298,-0.0293,-0.0257,-0.0257,-0.0252,-0.0217,-0.021,-0.0167,-0.0126,-0.0178,-0.0173,-0.0168,-0.0063,-0.0046,-0.0037,0.0029,0.0012,0.0016,0.0019,0.0021,0.0134,0.0134,0,0,0,0,0,0,-0.0316,-0.0296,-0.026,-0.0255,-0.0273,-0.0217,-0.0209,-0.0207,-0.0127,-0.0115,-0.0168,-0.0165,-0.0054,-0.0043,-0.0032,0.0003,0.0017,0.0022,0.0024,0.0134,0.0134,0.0134,0,0,0,0,0,0,-0.0317,-0.0314,-0.0263,-0.0275,-0.0267,-0.0218,-0.0215,-0.0205,-0.0187,-0.0121,-0.0108,-0.016,-0.0053,-0.0039,0.0006,0.0008,0.0024,0.0028,0.0133,0.0134,0.0134,0.0066,0,0,0,0,0,0,-0.0319,-0.0315,-0.0321,-0.0277,-0.0267,-0.025,-0.0215,-0.0204,-0.0186,-0.0181,-0.011,-0.0097,-0.0052,-0.0002,0.001,0.0015,0.0032,0.0133,0.0134,0.0134,0.0068,0.0064,0.0061,0,0,0,0,0,-0.0321,-0.0336,-0.0321,-0.0317,-0.0276,-0.0251,-0.0243,-0.0204,-0.0186,-0.0184,-0.0133,-0.0099,0.0009,0.0002,0.0016,0.0022,0.0133,0.0133,0.0134,0.007,0.0065,0.0061,0,0,0,0,0,0,-0.036,-0.033,-0.0313,-0.0318,-0.029,-0.0241,-0.0238,-0.0211,-0.0169,-0.0163,-0.0097,-0.0081,-0.0041,-0.0001,-0.001,0.0056,0.0077,0.008,0.0024,0.0019,0.0015,-0.0002,0.0036,0,0,0,0,0,-0.0372,-0.0375,-0.0337,-0.0341,-0.0331,-0.0285,-0.0271,-0.0245,-0.0203,-0.0184,-0.0134,-0.0078,-0.0029,-0.0,0.0046,0.0081,0.0128,0.0095,0.0091,0.0088,0.0084,0.0156,0.0159,0.0135,0.0135,0.0135,0,0,-0.0388,-0.0373,-0.0374,-0.0349,-0.0324,-0.0318,-0.0275,-0.026,-0.0248,-0.0176,-0.0145,-0.0093,-0.0024,0.0016,0.0038,0.0051,0.0119,0.0088,0.0084,0.0082,0.0157,0.0159,0.0162,0.0135,0.0135,0.0135,0,0,-0.0427,-0.0408,-0.0425,-0.0407,-0.0379,-0.0347,-0.0348,-0.0302,-0.0274,-0.024,-0.0182,-0.0129,-0.0062,-0.0006,0.003,0.0033,0.0092,0.0046,0.0018,0.0088,0.0091,0.0093,0.015,0.0159,0.0048,0.0048,0.0048,0,-0.045,-0.0462,-0.0425,-0.0435,-0.0426,-0.0366,-0.0378,-0.0341,-0.0285,-0.0258,-0.0241,-0.0125,-0.0069,-0.0004,-0.0004,0.0025,0.0068,0.0027,0.0082,0.0086,0.009,0.0148,0.0159,0.0045,0.0045,0.0045,0.0046,0,-0.0499,-0.0507,-0.0515,-0.0505,-0.0489,-0.0489,-0.0437,-0.041,-0.0369,-0.0322,-0.0256,-0.0176,-0.0105,-0.0077,-0.004,0.0018,0.0039,0.0064,0.009,0.0088,0.015,0.0162,0.004,0.0041,0.0042,0.0043,0,0,-0.0554,-0.0553,-0.0555,-0.0564,-0.0527,-0.0521,-0.0494,-0.0449,-0.0426,-0.0357,-0.0316,-0.0225,-0.0174,-0.013,-0.0067,-0.0004,0.006,0.0033,0.0038,0.0081,0.0207,0.0239,0.0256,0.0093,0.0095,0.0096,0.0236,0,-0.0604,-0.0649,-0.0622,-0.0647,-0.0664,-0.0601,-0.0581,-0.0528,-0.0466,-0.0408,-0.0305,-0.0244,-0.0195,-0.0159,-0.009,0.0025,0.0088,0.0019,0.0209,0.0215,0.0238,0.027,0.0231,0.0354,0.0248,0.025,0.0252,0,-0.066,-0.0683,-0.0728,-0.0723,-0.0722,-0.072,-0.0672,-0.0645,-0.0541,-0.049,-0.0402,-0.0316,-0.0206,-0.017,0.0021,-0.0027,0.0077,0.0165,0.0174,0.0236,0.027,0.0342,0.038,0.0272,0.027,0.0269,0.0267,0,-0.0729,-0.0751,-0.0791,-0.0792,-0.0777,-0.0774,-0.0754,-0.0673,-0.0644,-0.0536,-0.0496,-0.0354,-0.0272,-0.013,0.0055,0.004,0.0267,0.0275,0.0404,0.0407,0.0428,0.043,0.0407,0.0407,0.0406,0.0406,0.0405,0,-0.0795,-0.0823,-0.083,-0.0855,-0.089,-0.0847,-0.085,-0.0802,-0.0723,-0.068,-0.0547,-0.0472,-0.0258,-0.0097,0.005,0.027,0.0271,0.0408,0.0452,0.0403,0.0401,0.0371,0.0365,0.0411,0.041,0.0409,0.0408,0,-0.0863,-0.0867,-0.0917,-0.0924,-0.0928,-0.0953,-0.093,-0.0921,-0.0837,-0.0775,-0.0741,-0.0544,-0.0325,-0.0108,0.0153,0.0274,0.0473,0.0548,0.0471,0.0504,0.0561,0.055,0.07,0.0702,0.0704,0.0706,0.0708,0,-0.0902,-0.0938,-0.0983,-0.1018,-0.1026,-0.1049,-0.1059,-0.0991,-0.0969,-0.0811,-0.0782,-0.0553,-0.0374,0.0017,0.028,0.0559,0.0553,0.0669,0.0637,0.0567,0.0595,0.058,0.0567,0.0639,0.0639,0.064,0.0641,0,-0.0974,-0.0989,-0.1029,-0.111,-0.1144,-0.1171,-0.1172,-0.1171,-0.1067,-0.0978,-0.081,-0.0648,-0.0262,0.0057,0.0415,0.0567,0.0619,0.0691,0.0668,0.0563,0.0519,0.0543,0.053,0.0646,0.0646,0.0645,0.0645,0.0645,-0.1015,-0.1066,-0.1123,-0.1192,-0.1236,-0.1271,-0.1281,-0.1239,-0.1175,-0.1004,-0.0846,-0.0561,-0.027,0.0259,0.0494,0.0718,0.0717,0.076,0.0754,0.0748,0.0709,0.0671,0.0818,0.0819,0.0819,0.0819,0.082,0,-0.1063,-0.1119,-0.1198,-0.1273,-0.133,-0.133,-0.1332,-0.129,-0.1194,-0.0996,-0.0789,-0.0432,-0.0072,0.0235,0.0593,0.0792,0.0765,0.0815,0.0732,0.0726,0.0721,0.0675,0.0779,0.0779,0.078,0.078,0,0,-0.1089,-0.1175,-0.1218,-0.1325,-0.1375,-0.1404,-0.1395,-0.1291,-0.114,-0.092,-0.0691,-0.0409,-0.0042,0.0193,0.0442,0.0624,0.0619,0.0638,0.0651,0.0518,0.051,0.0673,0.0596,0,0,0,0,0]}],[{"header":{"parameterUnit":"m.s-1","parameterCategory":2,"la1":30.2991,"la2":30.254,"lo1":-89.0895,"lo2":-89.0444,"dy":0.0017,"dx":0.0017,"nx":28,"ny":28,"refTime":"2025-11-05T03:00:00:Z","depth":"4","parameterNumber":2,"parameterNumberName":"U-component_of_CURRENTS"},"data":[0,0,0,0,0,0,0,0,0,0,0,0,0,0,0,0,0,0,0,0,0,0,0,0,0,0,0,0,0,0,0,0,0,0,0,0,0,0,0,0,0,0,0,0,0,0,0,0,0,0,0,0,0,0,0,0,0,0,-0.1879,-0.188,0,-0.1957,-0.1958,-0.1959,-0.2004,-0.2005,-0.2005,-0.2005,-0.2072,-0.2074,-0.2075,0,0,0,0,0,0,0,0,0,0,0,0,0,-0.1769,-0.177,-0.1879,-0.188,-0.1882,-0.1957,-0.1958,-0.1959,-0.2004,-0.2005,-0.2005,-0.2006,-0.2072,-0.2073,-0.2075,0,0,0,0,0,0,0,0,0,0,0,0,0,-0.1827,-0.1771,-0.1879,-0.1915,-0.1919,-0.1957,-0.1958,-0.1959,-0.2004,-0.2005,-0.2005,-0.2006,-0.2071,-0.2073,-0.2075,-0.2078,0,0,-0.2082,-0.2083,0,0,0,0,0,0,0,0,-0.1824,-0.1831,-0.1908,-0.1912,-0.1917,-0.1973,-0.1944,-0.1999,-0.2004,-0.197,-0.2005,-0.2006,-0.2039,-0.2044,-0.2055,-0.2081,-0.2084,-0.2082,-0.2084,-0.2084,-0.2085,0,0,0,0,0,0,0,-0.182,-0.1828,-0.1908,-0.191,-0.1915,-0.1927,-0.1935,-0.1954,-0.1999,-0.1973,-0.1977,-0.1988,-0.2041,-0.2053,-0.2057,-0.2085,-0.2082,-0.2084,-0.2085,-0.2086,-0.2187,-0.2188,0,0,0,0,0,0,-0.1813,-0.1824,-0.1906,-0.1911,-0.1873,-0.1928,-0.1938,-0.1953,-0.1999,-0.2007,-0.1988,-0.199,-0.2049,-0.2054,-0.2059,-0.2139,-0.2084,-0.2086,-0.2088,-0.2186,-0.2187,-0.2189,0,0,0,0,0,0,-0.1811,-0.182,-0.1903,-0.187,-0.1882,-0.193,-0.1947,-0.1954,-0.1998,-0.2011,-0.2018,-0.2026,-0.2049,-0.2056,-0.2106,-0.2139,-0.2087,-0.2089,-0.2184,-0.2186,-0.2188,-0.2251,0,0,0,0,0,0,-0.1807,-0.1819,-0.1842,-0.187,-0.1884,-0.1947,-0.1947,-0.1956,-0.2003,-0.2007,-0.2046,-0.2051,-0.205,-0.2102,-0.2108,-0.2141,-0.2091,-0.2182,-0.2185,-0.2188,-0.2247,-0.2255,-0.2262,0,0,0,0,0,-0.1803,-0.1829,-0.1842,-0.1853,-0.1909,-0.1949,-0.1958,-0.1991,-0.2004,-0.203,-0.2058,-0.2051,-0.2122,-0.2106,-0.2111,-0.2146,-0.2181,-0.2184,-0.2187,-0.2244,-0.2254,-0.2262,0,0,0,0,0,0,-0.1795,-0.1837,-0.1852,-0.1891,-0.1928,-0.1958,-0.1989,-0.201,-0.2052,-0.2065,-0.2073,-0.208,-0.2134,-0.2132,-0.2113,-0.2182,-0.2149,-0.2154,-0.219,-0.2199,-0.2206,-0.2203,-0.2093,0,0,0,0,0,-0.1802,-0.1834,-0.1872,-0.1906,-0.1927,-0.1964,-0.199,-0.2015,-0.2049,-0.207,-0.2098,-0.2123,-0.2146,-0.2167,-0.2186,-0.2228,-0.2204,-0.2253,-0.226,-0.2266,-0.2267,-0.2259,-0.2265,-0.2199,-0.2199,-0.2199,0,0,-0.1809,-0.1836,-0.1855,-0.1907,-0.1938,-0.1978,-0.1982,-0.2033,-0.2073,-0.2069,-0.2139,-0.2153,-0.2162,-0.2208,-0.2232,-0.2216,-0.2273,-0.227,-0.2275,-0.2273,-0.2263,-0.2269,-0.2275,-0.2201,-0.2201,-0.2201,0,0,-0.1826,-0.1863,-0.1893,-0.1929,-0.1985,-0.2009,-0.2031,-0.2083,-0.2117,-0.2176,-0.2182,-0.2217,-0.2263,-0.2273,-0.2281,-0.2339,-0.231,-0.2351,-0.239,-0.2383,-0.2388,-0.2392,-0.2367,-0.2369,-0.2356,-0.2356,-0.2357,0,-0.1834,-0.1875,-0.1909,-0.1948,-0.1983,-0.2027,-0.2068,-0.2109,-0.2173,-0.2199,-0.2209,-0.2274,-0.2288,-0.2328,-0.2352,-0.2356,-0.234,-0.2356,-0.2391,-0.2395,-0.2398,-0.2372,-0.2372,-0.236,-0.2359,-0.2359,-0.2359,0,-0.1864,-0.1912,-0.1935,-0.1997,-0.204,-0.2086,-0.2141,-0.2193,-0.2237,-0.2267,-0.233,-0.2351,-0.2383,-0.2398,-0.2398,-0.2434,-0.2412,-0.2399,-0.2366,-0.2408,-0.2378,-0.2378,-0.2365,-0.2363,-0.2362,-0.2362,0,0,-0.1837,-0.1937,-0.1948,-0.1986,-0.2072,-0.2104,-0.218,-0.2244,-0.2289,-0.2351,-0.2396,-0.2446,-0.2456,-0.2466,-0.2471,-0.2476,-0.2489,-0.2457,-0.2455,-0.2427,-0.2464,-0.2304,-0.2288,-0.2484,-0.2485,-0.2485,-0.2433,0,-0.185,-0.1924,-0.1976,-0.2053,-0.2094,-0.2163,-0.2223,-0.2291,-0.2346,-0.2402,-0.2432,-0.2478,-0.2482,-0.2503,-0.2511,-0.2497,-0.2492,-0.2503,-0.2432,-0.2429,-0.2278,-0.2283,-0.2487,-0.2432,-0.2432,-0.2432,-0.2432,0,-0.1851,-0.1904,-0.198,-0.2078,-0.2104,-0.2162,-0.2258,-0.2319,-0.2402,-0.2444,-0.2493,-0.2516,-0.255,-0.2539,-0.2532,-0.2542,-0.251,-0.249,-0.2487,-0.2314,-0.2268,-0.2383,-0.2431,-0.2431,-0.2431,-0.2431,-0.2431,0,-0.1791,-0.1901,-0.1962,-0.1998,-0.2117,-0.2171,-0.2237,-0.2332,-0.2379,-0.2469,-0.2501,-0.2546,-0.2566,-0.255,-0.2522,-0.2532,-0.2487,-0.2488,-0.231,-0.2299,-0.2432,-0.2428,-0.2465,-0.2465,-0.2465,-0.2466,-0.2466,0,-0.176,-0.1812,-0.1947,-0.1977,-0.205,-0.2149,-0.2227,-0.2299,-0.2391,-0.2425,-0.2515,-0.2523,-0.2571,-0.2553,-0.2523,-0.24,-0.2482,-0.2305,-0.227,-0.246,-0.246,-0.2431,-0.2428,-0.2464,-0.2464,-0.2464,-0.2465,0,-0.1673,-0.1767,-0.184,-0.1977,-0.2023,-0.2073,-0.2208,-0.2249,-0.2361,-0.2404,-0.2431,-0.2509,-0.2478,-0.2489,-0.2451,-0.2373,-0.2292,-0.2227,-0.2418,-0.2397,-0.2112,-0.2113,-0.2022,-0.2016,-0.2011,-0.2006,-0.2003,0,-0.163,-0.1662,-0.1813,-0.1851,-0.1918,-0.2015,-0.2068,-0.2208,-0.2241,-0.2359,-0.2346,-0.238,-0.2402,-0.221,-0.2255,-0.2167,-0.2143,-0.2094,-0.2114,-0.2089,-0.2065,-0.2074,-0.2082,-0.1994,-0.1993,-0.1992,-0.199,0,-0.1533,-0.1604,-0.1662,-0.1742,-0.1813,-0.1877,-0.1964,-0.1972,-0.2107,-0.2237,-0.2184,-0.2158,-0.2117,-0.2081,-0.2025,-0.197,-0.2126,-0.2039,-0.205,-0.2069,-0.2054,-0.2038,-0.2052,-0.1972,-0.1975,-0.1976,-0.1977,0,-0.1456,-0.1469,-0.155,-0.16,-0.1682,-0.1692,-0.1769,-0.1794,-0.1846,-0.1985,-0.1956,-0.1995,-0.2078,-0.1975,-0.1923,-0.1856,-0.1834,-0.1779,-0.1803,-0.1824,-0.1785,-0.1739,-0.1514,0,0,0,0,0,-0.1365,-0.1357,-0.1396,-0.1442,-0.1515,-0.1555,-0.1668,-0.1749,-0.1886,-0.1788,-0.1867,-0.1817,-0.1751,-0.178,-0.1665,-0.1837,-0.1844,-0.1699,-0.1796,-0.1871,-0.1892,-0.1866,0,0,0,0,0,0,-0.1303,-0.1333,-0.134,-0.1288,-0.1285,-0.1342,-0.1402,-0.1504,-0.1464,-0.1611,-0.1574,-0.1696,-0.165,-0.1767,-0.1619,-0.1628,-0.1649,-0.1744,-0.1738,-0.186,-0.1879,-0.1895,-0.1875,0,0,0,0,0]},{"header":{"parameterUnit":"m.s-1","parameterCategory":2,"la1":30.2991,"la2":30.254,"lo1":-89.0895,"lo2":-89.0444,"dy":0.0017,"dx":0.0017,"nx":28,"ny":28,"refTime":"2025-11-05T03:00:00:Z","depth":"4","parameterNumber":3,"parameterNumberName":"V-component_of_CURRENTS"},"data":[0,0,0,0,0,0,0,0,0,0,0,0,0,0,0,0,0,0,0,0,0,0,0,0,0,0,0,0,0,0,0,0,0,0,0,0,0,0,0,0,0,0,0,0,0,0,0,0,0,0,0,0,0,0,0,0,0,0,-0.0249,-0.0248,0,-0.0199,-0.0198,-0.0198,-0.0159,-0.0159,-0.0159,-0.0158,-0.0065,-0.0063,-0.0061,0,0,0,0,0,0,0,0,0,0,0,0,0,-0.0267,-0.0267,-0.0249,-0.0248,-0.0248,-0.0199,-0.0198,-0.0197,-0.0159,-0.0159,-0.0159,-0.0158,-0.0066,-0.0063,-0.006,0,0,0,0,0,0,0,0,0,0,0,0,0,-0.0241,-0.0267,-0.0249,-0.0224,-0.0221,-0.0199,-0.0198,-0.0197,-0.0159,-0.0159,-0.0159,-0.0158,-0.0067,-0.0063,-0.006,-0.0045,0,0,-0.005,-0.0048,0,0,0,0,0,0,0,0,-0.0243,-0.024,-0.0228,-0.0226,-0.0223,-0.0186,-0.0171,-0.0145,-0.0159,-0.0181,-0.0158,-0.0158,-0.0103,-0.0097,-0.0086,-0.0041,-0.0037,-0.0049,-0.0047,-0.0046,-0.0045,0,0,0,0,0,0,0,-0.0245,-0.0242,-0.0227,-0.0228,-0.0224,-0.0201,-0.0197,-0.0166,-0.0142,-0.0179,-0.0177,-0.0174,-0.0101,-0.009,-0.0084,-0.0036,-0.0049,-0.0046,-0.0044,-0.0043,0.0041,0.0041,0,0,0,0,0,0,-0.0257,-0.0244,-0.0229,-0.0226,-0.0234,-0.0201,-0.0197,-0.0197,-0.0143,-0.0136,-0.0174,-0.0172,-0.0096,-0.0088,-0.008,-0.0052,-0.0046,-0.0043,-0.0041,0.0041,0.0041,0.0041,0,0,0,0,0,0,-0.0258,-0.0256,-0.0231,-0.0235,-0.023,-0.0202,-0.0202,-0.0196,-0.0187,-0.0141,-0.0132,-0.0172,-0.0095,-0.0085,-0.0053,-0.0048,-0.0041,-0.0038,0.0041,0.0041,0.0041,0.0001,0,0,0,0,0,0,-0.0258,-0.0257,-0.0264,-0.0236,-0.0231,-0.0224,-0.0202,-0.0196,-0.0187,-0.0184,-0.0135,-0.0126,-0.0094,-0.0059,-0.005,-0.0043,-0.0035,0.004,0.0041,0.0041,0.0002,-0.0,-0.0002,0,0,0,0,0,-0.0259,-0.0272,-0.0265,-0.0263,-0.0241,-0.0225,-0.022,-0.0197,-0.0187,-0.0187,-0.0152,-0.0128,-0.005,-0.0056,-0.0046,-0.0038,0.004,0.0041,0.0041,0.0003,-0.0,-0.0002,0,0,0,0,0,0,-0.0284,-0.0268,-0.026,-0.0267,-0.0251,-0.0219,-0.0219,-0.0203,-0.0175,-0.0173,-0.0127,-0.0115,-0.0085,-0.0057,-0.0065,-0.0012,-0.0001,0.0002,-0.0033,-0.0035,-0.0038,-0.0051,-0.0032,0,0,0,0,0,-0.0294,-0.0299,-0.0277,-0.0283,-0.0278,-0.025,-0.0242,-0.0227,-0.0199,-0.0187,-0.0152,-0.0113,-0.0075,-0.0054,-0.0021,0.0007,0.0041,0.002,0.0017,0.0015,0.0012,0.0071,0.0074,0.0042,0.0042,0.0042,0,0,-0.0306,-0.0298,-0.0301,-0.0289,-0.0274,-0.0272,-0.0244,-0.0237,-0.0229,-0.018,-0.016,-0.0121,-0.0071,-0.0039,-0.0023,-0.0015,0.0042,0.0016,0.0014,0.0011,0.0072,0.0075,0.0078,0.0043,0.0043,0.0042,0,0,-0.0333,-0.0325,-0.0339,-0.0329,-0.0314,-0.0293,-0.0295,-0.0266,-0.0248,-0.0225,-0.0184,-0.0143,-0.0095,-0.005,-0.0022,-0.0016,0.0025,-0.0008,-0.0024,0.0034,0.0037,0.004,0.0082,0.0089,-0.0005,-0.0005,-0.0005,0,-0.0349,-0.0362,-0.0339,-0.0348,-0.0345,-0.0307,-0.0318,-0.0292,-0.0255,-0.0238,-0.0227,-0.014,-0.0097,-0.0043,-0.004,-0.002,0.0011,-0.002,0.0031,0.0035,0.0039,0.0081,0.009,-0.0007,-0.0007,-0.0007,-0.0007,0,-0.0383,-0.0393,-0.04,-0.0397,-0.0389,-0.0393,-0.0358,-0.0341,-0.0315,-0.0282,-0.0232,-0.0169,-0.0116,-0.0092,-0.0064,-0.0013,-0.0002,0.0018,0.0035,0.0039,0.0084,0.0093,-0.001,-0.0009,-0.0009,-0.0008,0,0,-0.0419,-0.0425,-0.0428,-0.0441,-0.0418,-0.0418,-0.0399,-0.037,-0.0359,-0.0305,-0.0277,-0.02,-0.0161,-0.0128,-0.0077,-0.0023,0.0033,0.0002,0.0006,0.0039,0.0149,0.0126,0.0135,0.006,0.0062,0.0063,0.0167,0,-0.0453,-0.0491,-0.0475,-0.0501,-0.0517,-0.0478,-0.0466,-0.0431,-0.0389,-0.0351,-0.0265,-0.0221,-0.0174,-0.015,-0.0086,0.0003,0.0057,0.0002,0.0144,0.0148,0.0124,0.0145,0.0068,0.0174,0.0176,0.0178,0.0179,0,-0.049,-0.0512,-0.0553,-0.0563,-0.0565,-0.0571,-0.0549,-0.0531,-0.0457,-0.0422,-0.035,-0.0284,-0.0189,-0.0157,0.0004,-0.0035,0.0048,0.0119,0.0125,0.0123,0.0143,0.0172,0.0197,0.0196,0.0194,0.0193,0.0192,0,-0.0536,-0.0563,-0.0603,-0.0608,-0.0609,-0.0618,-0.0611,-0.0559,-0.0544,-0.0465,-0.044,-0.0318,-0.0256,-0.0132,0.0017,0.0011,0.0189,0.0204,0.0264,0.0264,0.0271,0.0266,0.0314,0.0314,0.0313,0.0313,0.0313,0,-0.0577,-0.0609,-0.0635,-0.0659,-0.0703,-0.0678,-0.0699,-0.0668,-0.0618,-0.0595,-0.0485,-0.0432,-0.0247,-0.012,0.0008,0.0164,0.0189,0.0264,0.0293,0.025,0.0242,0.0277,0.0272,0.0317,0.0316,0.0315,0.0315,0,-0.0617,-0.0633,-0.0687,-0.0716,-0.0731,-0.0763,-0.0774,-0.0777,-0.0722,-0.0687,-0.0663,-0.0508,-0.0338,-0.0156,0.0058,0.0146,0.03,0.0349,0.0282,0.0305,0.0336,0.0327,0.0423,0.0423,0.0423,0.0423,0.0424,0,-0.0638,-0.0673,-0.0742,-0.0785,-0.0806,-0.0848,-0.0871,-0.0837,-0.0828,-0.0727,-0.0706,-0.0541,-0.0421,-0.0129,0.0052,0.0294,0.0325,0.039,0.037,0.0331,0.035,0.034,0.0332,0.0424,0.0424,0.0424,0.0424,0,-0.0679,-0.071,-0.0755,-0.0849,-0.09,-0.0945,-0.0968,-0.0969,-0.0907,-0.0864,-0.0721,-0.0555,-0.0362,-0.0131,0.0058,0.0229,0.0339,0.0392,0.0393,0.0374,0.0333,0.0349,0.034,0.0424,0.0424,0.0424,0.0424,0,-0.0705,-0.0752,-0.082,-0.0894,-0.0968,-0.101,-0.1021,-0.0984,-0.0958,-0.0832,-0.0787,-0.0561,-0.042,-0.0164,0.0009,0.0176,0.0212,0.0247,0.0256,0.0258,0.0174,0.0095,0.0142,0,0,0,0,0,-0.0722,-0.0776,-0.0857,-0.0936,-0.101,-0.1042,-0.1065,-0.1054,-0.0999,-0.0905,-0.0837,-0.0649,-0.036,-0.0228,-0.0064,-0.0011,0.0218,0.0181,0.0256,0.0426,0.0426,0.0353,0,0,0,0,0,0,-0.0735,-0.0815,-0.0857,-0.0949,-0.1005,-0.107,-0.1084,-0.105,-0.098,-0.09,-0.0738,-0.0633,-0.0348,-0.0448,-0.0064,-0.0014,0.0049,0.0327,0.0329,0.0426,0.0426,0.0426,0.0351,0,0,0,0,0]}]]